Weather History for San Jose, Costa Rica

Change the Weather History Date:

Wednesday, August 1, 2012

  Actual Average Record
Temperature  
Mean Temperature 75 °F -  
Max Temperature 84 °F 80 °F 86 °F (1996)
Min Temperature 66 °F 64 °F 62 °F (2000)
Cooling Degree Days 10    
Growing Degree Days 25 (Base 50)    
Moisture  
Dew Point 65 °F    
Average Humidity 74    
Maximum Humidity 100    
Minimum Humidity 41    
Precipitation  
Precipitation 0.01 in 0.37 in - ()
Sea Level Pressure  
Sea Level Pressure 29.99 in    
Wind  
Wind Speed 7 mph ()    
Max Wind Speed 15 mph    
Max Gust Speed -    
Visibility 7.0 miles    
Events Fog , Rain    
Averages and records for this station are not official NWS values.
T = Trace of Precipitation, MM = Missing Value Source: Averaged Metar Reports

Daily Weather History Graph

Daily Weather History Graph

Search for Another Location

Airport:

Trip Planner

Search our weather history database for the weather conditions in past years. The results will help you decide how hot, cold, wet, or windy it might be!

Date:

Astronomy

Aug. 01, 2012 Rise Set
Actual Time 5:26 AM CST 5:59 PM CST
Civil Twilight 5:04 AM CST 6:21 PM CST
Nautical Twilight 4:38 AM CST 6:47 PM CST
Astronomical Twilight 4:12 AM CST 7:13 PM CST
Moon 5:40 PM CST (8/1) 4:49 AM CST (8/1)
Length of Visible Light 13h 17m
Length of Day
12h 33m
Full, 100% of the Moon is Illuminated
Aug 1
Full
Aug 1
Full
Aug 9
Last Quarter
Aug 17
New
Aug 24
First Quarter

Hourly Weather History & Observations

Time (CST) Temp. Heat Index Dew Point Humidity Pressure Visibility Wind Dir Wind Speed Gust Speed Precip Events Conditions
12:00 AM 71 °F - 60 °F 61% 29.88 in 12 mi ESE 9.2 mph - -   Scattered Clouds
12:00 AM 71.6 °F - 60.8 °F 69% 30.04 in 6.2 mi ESE 9.2 mph - N/A   Scattered Clouds
1:00 AM 69.8 °F - 60.8 °F 73% 30.02 in 6.2 mi ESE 9.2 mph - N/A   Scattered Clouds
2:00 AM 69.8 °F - 60.8 °F 73% 30.01 in 6.2 mi East 6.9 mph - N/A   Scattered Clouds
3:00 AM 70 °F - 61 °F 65% 29.85 in 12 mi East 6.9 mph - -   Scattered Clouds
3:00 AM 69.8 °F - 60.8 °F 73% 30.01 in 6.2 mi East 6.9 mph - N/A   Scattered Clouds
4:00 AM 69.8 °F - 60.8 °F 73% 30.01 in 6.2 mi East 5.8 mph - N/A   Partly Cloudy
5:00 AM 68.0 °F - 60.8 °F 78% 30.02 in 6.2 mi NNE 5.8 mph - N/A   Partly Cloudy
6:00 AM 69 °F - 60 °F 66% 29.89 in 12 mi ENE 4.6 mph - -   Scattered Clouds
6:00 AM 69.8 °F - 60.8 °F 73% 30.03 in 6.2 mi ENE 4.6 mph - N/A   Partly Cloudy
7:00 AM 73.4 °F - 60.8 °F 65% 30.05 in - ESE 10.4 mph - N/A   Clear
8:00 AM 75.2 °F - 59.0 °F 57% 30.06 in - ESE 10.4 mph - N/A   Clear
9:00 AM 79 °F - 59 °F 41% 29.91 in 12 mi ESE 9.2 mph - -   Clear
9:00 AM 78.8 °F - 59.0 °F 51% 30.07 in - ESE 9.2 mph - N/A   Clear
10:00 AM 80.6 °F 81.1 °F 59.0 °F 48% 30.06 in 6.2 mi East 6.9 mph - N/A   Scattered Clouds
10:45 AM 80.6 °F 82.3 °F 64.4 °F 58% 30.05 in 6.2 mi WSW 6.9 mph - N/A   Scattered Clouds
11:00 AM 80.6 °F 82.7 °F 66.2 °F 61% 30.05 in 6.2 mi SW 9.2 mph - N/A   Scattered Clouds
12:00 PM 82 °F - 65 °F 47% 29.84 in 12 mi WSW 8.1 mph - -   Partly Cloudy
12:00 PM 82.4 °F 83.9 °F 64.4 °F 54% 30.02 in 6.2 mi WSW 8.1 mph - N/A   Scattered Clouds
1:00 PM 82.4 °F 85.4 °F 68.0 °F 62% 30.00 in 6.2 mi WSW 10.4 mph - N/A   Scattered Clouds
2:00 PM 78.8 °F - 69.8 °F 74% 30.00 in 6.2 mi West 15.0 mph - N/A   Scattered Clouds
3:00 PM 77 °F - 73 °F 85% 29.82 in 9 mi WSW 13.8 mph - -   Mostly Cloudy
3:00 PM 77.0 °F - 73.4 °F 89% 30.00 in 6.2 mi WSW 13.8 mph - N/A   Mostly Cloudy
4:00 PM 73.4 °F - 73.4 °F 100% 30.00 in 6.2 mi SW 9.2 mph - N/A Fog Mostly Cloudy
4:25 PM 71.6 °F - 69.8 °F 94% 30.00 in 6.2 mi SW 9.2 mph - N/A Rain Light Rain
5:00 PM 71.6 °F - 69.8 °F 94% 30.00 in 6.2 mi WSW 8.1 mph - N/A   Light Drizzle
6:00 PM 72 °F - 69 °F 86% 29.87 in 5 mi SW 4.6 mph - - Rain Light Rain
6:00 PM 71.6 °F - 68.0 °F 88% 30.03 in 5.0 mi SW 4.6 mph - N/A Fog , Rain Rain
7:00 PM 68.0 °F - 68.0 °F 100% 30.05 in 6.2 mi Calm Calm - N/A   Scattered Clouds
8:00 PM 69.8 °F - 68.0 °F 94% 30.06 in 5.0 mi West 4.6 mph - N/A   Light Drizzle
9:00 PM 70 °F - 68 °F 92% 29.91 in 5 mi West 3.5 mph - - Fog Light Fog
9:00 PM 69.8 °F - 68.0 °F 94% 30.07 in 5.0 mi West 3.5 mph - N/A Fog Fog
10:00 PM 69.8 °F - 68.0 °F 94% 30.06 in 6.2 mi East 2.3 mph - N/A   Scattered Clouds
11:00 PM 69.8 °F - 68.0 °F 94% 30.05 in 6.2 mi NE 3.5 mph - N/A   Scattered Clouds